Airfield :
LOGIN :

Register | Disclaimer

   EN    FR    IT 

 










Legend :    VFR   Marginal VFR   IFR   Intensive IFR   Very Intensive IFR
Visi :
Ceiling :
>= 8 km
>= 3000ft
5 to 8 km
1000 to 3000 ft
1500m to 5 km
500 to 1000 ft
800 to 1500m
200 to 500 ft
< 800m
< 200 ft
Symbols :   Thunderstorms  Fog  Heavy snow  Heavy precipitations  Wind > 20 kt
SIGMETs :     Misc.  Thunderstorms  Icing  Turbulence  Mountain Waves  Volcanic Ashes







- Airport Elevation : 1455 ft


ETIH - Hohenfels Army Air Field

CURRENT METAR :
  • 222156Z AUTO 27004KT 9999 OVC080 09/08 A3027 RMK AO2 SLP255 T00910083 $

EXPIRED METARs :
  • 222056Z AUTO 00000KT 9999 FEW060 SCT075 09/08 A3027 RMK AO2 SLP255 T00860084 52010 $
  • 221956Z AUTO 25003KT 9999 CLR 08/08 A3026 RMK AO2 SLP253 T00840083 $

Expired Forecast.
No reported NOTAMs for that airfield.



MET'MAP, your aeronautical weather chart ! - Copyright ORBIFLY December 2007 - Disclaimer

ORBIFLY MET'MAP TEAM :

Programming & Development : Alexandra Zaïnal
Concept & Development : Baudouin d'Aumeries
Co-Development & Prog : Marc-Olivier Méhu
Technical & hardware support : Manuel Goepfert

Contact : metmap@orbifly.com




SOURCES & CREDITS :

   NOAA